sat.trackr.live / text

‹ back to catalog

AEROCUBE 8C

NORAD 41853 · 2016-067F

PAYLOAD ACTIVE UNKNOWN

§ Identity

Operator
Country
US
Launch date
2016-11-11
Launch site
AFWTR
Launch vehicle
Mass (kg)
RCS (m²)
0.05

Purposes: tech_demo

External: N2YO · Heavens-Above · Gunter

§ Orbital elements

Epoch: 2026-05-25T03:23:54.818880Z

Period
94.47 min
Inclination
98.0591°
Eccentricity
0.0006426
Mean motion
15.24262693 rev/d
Perigee alt
488.6 km
Apogee alt
497.4 km
Semi-major
6,871.1 km
B*
2.8942e-4
RAAN
10.8203°
Arg perigee
130.7134°
Mean anomaly
229.4661°
Rev number
52,255

§ Raw data

AEROCUBE 8C1 41853U 16067F   26145.14160670  .00006988  00000+0  28942-3 0  99922 41853  98.0591  10.8203 0006426 130.7134 229.4661 15.24262693522555

JSON: /api/v1/satellites/41853 · /tle

For live sub-satellite position, see the globe view (requires WebGL).

§ Visibility from observer

Set your observer location to see the next 7 days of passes ≥ 10°. The values pass through the URL so the page stays shareable.

No JS? Fill the form by hand. The geolocation button needs JavaScript.